Anna Maersk — OXBA2 — position and weather

sailwx.info

Track history (hours):
 
Tides and Currents Weather Stations Pressure Air Temp Water Temp Dewpoint Dewpoint Depression Visibility Wind Speed Wind Dir Waves Ship Positions

Anna Maersk

Last reported at 2018-Jun-17 01:49 UTC. Time now 2018-Jun-21 14:15 UTC.
Position N 26°32' W 078°46'.

Length 352 m; draft 11.6 m.

Type: Ship (hazmat cat A). MMSI: 220199000.

Date/timePositionNaut miles runAvg speedWind from/ knotsBaromVisibWave heightAir tempDewpointWater temp
2018-Jun-17 01:49N 26°32' W 078°46'0 0.0
2018-Jun-16 18:58N 26°32' W 078°46'0 0.0
2018-Jun-16 18:28N 26°32' W 078°46'0 0.0
2018-Jun-16 17:58N 26°32' W 078°46'0 0.0
2018-Jun-16 17:28N 26°32' W 078°46'0 0.0
2018-Jun-16 16:55N 26°32' W 078°46'0 0.0
2018-Jun-16 16:25N 26°32' W 078°46'0 0.0
2018-Jun-16 15:55N 26°32' W 078°46'64 2.5
2018-Jun-15 14:19N 25°56' W 079°45'3 8.6
2018-Jun-15 14:00N 25°55' W 079°48'5 9.1
2018-Jun-15 13:30N 25°52' W 079°52'5 9.5
2018-Jun-15 13:00N 25°50' W 079°57'5 9.2
2018-Jun-15 12:30N 25°48' W 080°01'5 9.2
2018-Jun-15 12:00N 25°46' W 080°06'3 6.1
2018-Jun-15 11:30N 25°46' W 080°09'0 0.5
2018-Jun-15 11:00N 25°46' W 080°09'0 0.0
2018-Jun-15 10:28N 25°46' W 080°09'0 0.0
2018-Jun-15 09:58N 25°46' W 080°09'0 0.0
2018-Jun-15 09:25N 25°46' W 080°09'0 0.0
2018-Jun-15 08:58N 25°46' W 080°09'0 0.0
2018-Jun-15 08:28N 25°46' W 080°09'0 0.0
2018-Jun-15 07:58N 25°46' W 080°09'0 0.0
2018-Jun-15 07:28N 25°46' W 080°09'0 0.0
2018-Jun-15 06:58N 25°46' W 080°09'0 0.0
2018-Jun-15 06:22N 25°46' W 080°09'0 0.0
2018-Jun-15 05:58N 25°46' W 080°09'0 0.0
2018-Jun-15 05:25N 25°46' W 080°09'0 0.0
2018-Jun-15 04:58N 25°46' W 080°09'0 0.0
2018-Jun-15 04:28N 25°46' W 080°09'0 0.0
2018-Jun-15 03:55N 25°46' W 080°09'0 0.0
2018-Jun-15 03:28N 25°46' W 080°09'0 0.0
2018-Jun-15 02:58N 25°46' W 080°09'0 0.0
2018-Jun-15 02:28N 25°46' W 080°09'0 0.0
2018-Jun-15 01:58N 25°46' W 080°09'0 0.0
2018-Jun-15 01:28N 25°46' W 080°09'0 0.0
2018-Jun-15 00:58N 25°46' W 080°09'0 0.0
2018-Jun-15 00:28N 25°46' W 080°09'0 0.0
2018-Jun-14 23:58N 25°46' W 080°09'0 0.0
2018-Jun-14 23:28N 25°46' W 080°09'0 0.0
2018-Jun-14 22:58N 25°46' W 080°09'0 0.0
2018-Jun-14 22:28N 25°46' W 080°09'0 0.0
2018-Jun-14 21:58N 25°46' W 080°09'0 0.0
2018-Jun-14 21:28N 25°46' W 080°09'0 0.0
2018-Jun-14 20:58N 25°46' W 080°09'0 0.0
2018-Jun-14 20:28N 25°46' W 080°09'0 0.0
2018-Jun-14 19:46N 25°46' W 080°09'0 0.0
2018-Jun-14 19:28N 25°46' W 080°09'0 0.0
2018-Jun-14 18:55N 25°46' W 080°09'0 0.0
2018-Jun-14 18:28N 25°46' W 080°09'0 0.0
2018-Jun-14 17:58N 25°46' W 080°09'0 0.0
2018-Jun-14 17:28N 25°46' W 080°09'0 0.0
2018-Jun-14 16:58N 25°46' W 080°09'0 0.0
2018-Jun-14 16:28N 25°46' W 080°09'0 0.4
2018-Jun-14 16:00N 25°46' W 080°10'0 0.4
2018-Jun-14 15:30N 25°46' W 080°10'2 3.5
2018-Jun-14 15:00N 25°46' W 080°08'5 9.7
2018-Jun-14 14:30N 25°46' W 080°02'1 2.1
2018-Jun-14 14:00N 25°46' W 080°02'3 5.3
2018-Jun-14 13:30N 25°48' W 079°60'4 7.5
2018-Jun-14 13:00N 25°50' W 079°56'4 7.8
2018-Jun-14 12:30N 25°52' W 079°53'5 8.9
2018-Jun-14 12:00N 25°55' W 079°49'4 8.7
2018-Jun-14 11:30N 25°58' W 079°45'5 9.4
2018-Jun-14 11:00N 26°00' W 079°41'5 9.9
2018-Jun-14 10:30N 26°03' W 079°36'611.7
2018-Jun-14 10:00N 26°07' W 079°31'611.9
2018-Jun-14 09:30N 26°11' W 079°26'611.9
2018-Jun-14 09:00N 26°16' W 079°22'611.8
2018-Jun-14 08:30N 26°21' W 079°21'38414.5
2018-Jun-13 05:59N 32°44' W 079°51'511.5
2018-Jun-13 05:30N 32°49' W 079°55'2 4.0
2018-Jun-13 05:00N 32°50' W 079°53'0 0.0
2018-Jun-13 04:30N 32°50' W 079°53'0 0.0
2018-Jun-13 04:00N 32°50' W 079°53'0 0.0
2018-Jun-13 03:30N 32°50' W 079°53'0 0.0
2018-Jun-13 03:00N 32°50' W 079°53'0 0.0
2018-Jun-13 02:30N 32°50' W 079°53'0 0.0
2018-Jun-13 02:00N 32°50' W 079°53'0 0.0
2018-Jun-13 01:30N 32°50' W 079°53'0 0.0
2018-Jun-13 00:54N 32°50' W 079°53'0 0.0
2018-Jun-13 00:27N 32°50' W 079°53'0 0.0
2018-Jun-13 00:00N 32°50' W 079°53'0 0.0
2018-Jun-12 22:39N 32°50' W 079°53'0 0.0
2018-Jun-12 22:24N 32°50' W 079°53'0 0.0
2018-Jun-12 22:00N 32°50' W 079°53'0 0.0
2018-Jun-12 21:30N 32°50' W 079°53'0 0.0
2018-Jun-12 21:00N 32°50' W 079°53'0 0.0
2018-Jun-12 20:30N 32°50' W 079°53'0 0.0
2018-Jun-12 20:00N 32°50' W 079°53'0 0.0
2018-Jun-12 19:30N 32°50' W 079°53'0 0.0
2018-Jun-12 17:42N 32°50' W 079°53'0 0.0
2018-Jun-12 13:36N 32°50' W 079°53'0 0.0
2018-Jun-12 13:24N 32°50' W 079°53'0 0.0
2018-Jun-12 13:00N 32°50' W 079°53'0 0.0
2018-Jun-12 12:30N 32°50' W 079°53'0 0.0
2018-Jun-12 12:00N 32°50' W 079°53'0 0.0
2018-Jun-12 11:30N 32°50' W 079°53'0 0.0
2018-Jun-12 11:00N 32°50' W 079°53'0 0.0
2018-Jun-12 10:30N 32°50' W 079°53'0 0.1
2018-Jun-12 10:00N 32°50' W 079°53'2 3.5
2018-Jun-12 09:27N 32°49' W 079°55'4 8.5
2018-Jun-12 09:00N 32°46' W 079°52'203 4.3
2018-Jun-10 09:49N 34°20' W 076°16'311.2
2018-Jun-10 09:31N 34°22' W 076°13'155 8.6
2018-Jun-09 15:32N 36°57' W 076°20'5 8.6
2018-Jun-09 15:01N 36°53' W 076°20'1 0.0
2018-Jun-08 15:28N 36°53' W 076°21'1 3.1
2018-Jun-08 15:00N 36°54' W 076°20'4 8.1
2018-Jun-08 14:29N 36°58' W 076°20'1012.7
2018-Jun-08 13:42N 36°59' W 076°07'514.2
2018-Jun-08 13:20N 36°57' W 076°01'514.9
2018-Jun-08 13:00N 36°55' W 075°56'5 9.1
2018-Jun-08 12:30N 36°52' W 075°51'611.2
2018-Jun-08 12:00N 36°49' W 075°45'612.7
2018-Jun-08 11:30N 36°45' W 075°40'713.8
2018-Jun-08 11:00N 36°40' W 075°33'714.5
2018-Jun-08 10:30N 36°36' W 075°27'714.7
2018-Jun-08 10:00N 36°31' W 075°19'714.8
2018-Jun-08 09:30N 36°26' W 075°13'714.7
2018-Jun-08 09:00N 36°21' W 075°06'914.6
2018-Jun-08 08:24N 36°12' W 075°05'614.6
2018-Jun-08 08:00N 36°06' W 075°04'714.6
2018-Jun-08 07:31N 35°59' W 075°04'714.4
2018-Jun-08 07:00N 35°52' W 075°03'714.4
2018-Jun-08 06:30N 35°45' W 075°02'714.3
2018-Jun-08 06:00N 35°37' W 075°02'714.3
2018-Jun-08 05:30N 35°30' W 075°01'714.2
2018-Jun-08 05:00N 35°23' W 075°01'714.1
2018-Jun-08 04:30N 35°16' W 075°00'713.0
2018-Jun-08 03:59N 35°10' W 074°60'30912.8
2018-Jun-07 03:45N 32°04' W 079°57'311.5
2018-Jun-07 03:30N 32°03' W 080°00'1111.4
2018-Jun-07 02:35N 31°60' W 080°12'211.5
2018-Jun-07 02:25N 31°59' W 080°14'511.5
2018-Jun-07 02:00N 31°58' W 080°20'  
Track history (hours):
 
Tides and Currents Weather Stations Pressure Air Temp Water Temp Dewpoint Dewpoint Depression Visibility Wind Speed Wind Dir Waves Ship Positions

Anna Maersk

Last reported at 2018-Jun-17 01:49 UTC. Time now 2018-Jun-21 14:15 UTC.
Position N 26°32' W 078°46'.

Length 352 m; draft 11.6 m.

Type: Ship (hazmat cat A). MMSI: 220199000.

Date/timePositionNaut miles runAvg speedWind from/ knotsBaromVisibWave heightAir tempDewpointWater temp
2018-Jun-17 01:49N 26°32' W 078°46'0 0.0
2018-Jun-16 18:58N 26°32' W 078°46'0 0.0
2018-Jun-16 18:28N 26°32' W 078°46'0 0.0
2018-Jun-16 17:58N 26°32' W 078°46'0 0.0
2018-Jun-16 17:28N 26°32' W 078°46'0 0.0
2018-Jun-16 16:55N 26°32' W 078°46'0 0.0
2018-Jun-16 16:25N 26°32' W 078°46'0 0.0
2018-Jun-16 15:55N 26°32' W 078°46'64 2.5
2018-Jun-15 14:19N 25°56' W 079°45'3 8.6
2018-Jun-15 14:00N 25°55' W 079°48'5 9.1
2018-Jun-15 13:30N 25°52' W 079°52'5 9.5
2018-Jun-15 13:00N 25°50' W 079°57'5 9.2
2018-Jun-15 12:30N 25°48' W 080°01'5 9.2
2018-Jun-15 12:00N 25°46' W 080°06'3 6.1
2018-Jun-15 11:30N 25°46' W 080°09'0 0.5
2018-Jun-15 11:00N 25°46' W 080°09'0 0.0
2018-Jun-15 10:28N 25°46' W 080°09'0 0.0
2018-Jun-15 09:58N 25°46' W 080°09'0 0.0
2018-Jun-15 09:25N 25°46' W 080°09'0 0.0
2018-Jun-15 08:58N 25°46' W 080°09'0 0.0
2018-Jun-15 08:28N 25°46' W 080°09'0 0.0
2018-Jun-15 07:58N 25°46' W 080°09'0 0.0
2018-Jun-15 07:28N 25°46' W 080°09'0 0.0
2018-Jun-15 06:58N 25°46' W 080°09'0 0.0
2018-Jun-15 06:22N 25°46' W 080°09'0 0.0
2018-Jun-15 05:58N 25°46' W 080°09'0 0.0
2018-Jun-15 05:25N 25°46' W 080°09'0 0.0
2018-Jun-15 04:58N 25°46' W 080°09'0 0.0
2018-Jun-15 04:28N 25°46' W 080°09'0 0.0
2018-Jun-15 03:55N 25°46' W 080°09'0 0.0
2018-Jun-15 03:28N 25°46' W 080°09'0 0.0
2018-Jun-15 02:58N 25°46' W 080°09'0 0.0
2018-Jun-15 02:28N 25°46' W 080°09'0 0.0
2018-Jun-15 01:58N 25°46' W 080°09'0 0.0
2018-Jun-15 01:28N 25°46' W 080°09'0 0.0
2018-Jun-15 00:58N 25°46' W 080°09'0 0.0
2018-Jun-15 00:28N 25°46' W 080°09'0 0.0
2018-Jun-14 23:58N 25°46' W 080°09'0 0.0
2018-Jun-14 23:28N 25°46' W 080°09'0 0.0
2018-Jun-14 22:58N 25°46' W 080°09'0 0.0
2018-Jun-14 22:28N 25°46' W 080°09'0 0.0
2018-Jun-14 21:58N 25°46' W 080°09'0 0.0
2018-Jun-14 21:28N 25°46' W 080°09'0 0.0
2018-Jun-14 20:58N 25°46' W 080°09'0 0.0
2018-Jun-14 20:28N 25°46' W 080°09'0 0.0
2018-Jun-14 19:46N 25°46' W 080°09'0 0.0
2018-Jun-14 19:28N 25°46' W 080°09'0 0.0
2018-Jun-14 18:55N 25°46' W 080°09'0 0.0
2018-Jun-14 18:28N 25°46' W 080°09'0 0.0
2018-Jun-14 17:58N 25°46' W 080°09'0 0.0
2018-Jun-14 17:28N 25°46' W 080°09'0 0.0
2018-Jun-14 16:58N 25°46' W 080°09'0 0.0
2018-Jun-14 16:28N 25°46' W 080°09'0 0.4
2018-Jun-14 16:00N 25°46' W 080°10'0 0.4
2018-Jun-14 15:30N 25°46' W 080°10'2 3.5
2018-Jun-14 15:00N 25°46' W 080°08'5 9.7
2018-Jun-14 14:30N 25°46' W 080°02'1 2.1
2018-Jun-14 14:00N 25°46' W 080°02'3 5.3
2018-Jun-14 13:30N 25°48' W 079°60'4 7.5
2018-Jun-14 13:00N 25°50' W 079°56'4 7.8
2018-Jun-14 12:30N 25°52' W 079°53'5 8.9
2018-Jun-14 12:00N 25°55' W 079°49'4 8.7
2018-Jun-14 11:30N 25°58' W 079°45'5 9.4
2018-Jun-14 11:00N 26°00' W 079°41'5 9.9
2018-Jun-14 10:30N 26°03' W 079°36'611.7
2018-Jun-14 10:00N 26°07' W 079°31'611.9
2018-Jun-14 09:30N 26°11' W 079°26'611.9
2018-Jun-14 09:00N 26°16' W 079°22'611.8
2018-Jun-14 08:30N 26°21' W 079°21'38414.5
2018-Jun-13 05:59N 32°44' W 079°51'511.5
2018-Jun-13 05:30N 32°49' W 079°55'2 4.0
2018-Jun-13 05:00N 32°50' W 079°53'0 0.0
2018-Jun-13 04:30N 32°50' W 079°53'0 0.0
2018-Jun-13 04:00N 32°50' W 079°53'0 0.0
2018-Jun-13 03:30N 32°50' W 079°53'0 0.0
2018-Jun-13 03:00N 32°50' W 079°53'0 0.0
2018-Jun-13 02:30N 32°50' W 079°53'0 0.0
2018-Jun-13 02:00N 32°50' W 079°53'0 0.0
2018-Jun-13 01:30N 32°50' W 079°53'0 0.0
2018-Jun-13 00:54N 32°50' W 079°53'0 0.0
2018-Jun-13 00:27N 32°50' W 079°53'0 0.0
2018-Jun-13 00:00N 32°50' W 079°53'0 0.0
2018-Jun-12 22:39N 32°50' W 079°53'0 0.0
2018-Jun-12 22:24N 32°50' W 079°53'0 0.0
2018-Jun-12 22:00N 32°50' W 079°53'0 0.0
2018-Jun-12 21:30N 32°50' W 079°53'0 0.0
2018-Jun-12 21:00N 32°50' W 079°53'0 0.0
2018-Jun-12 20:30N 32°50' W 079°53'0 0.0
2018-Jun-12 20:00N 32°50' W 079°53'0 0.0
2018-Jun-12 19:30N 32°50' W 079°53'0 0.0
2018-Jun-12 17:42N 32°50' W 079°53'0 0.0
2018-Jun-12 13:36N 32°50' W 079°53'0 0.0
2018-Jun-12 13:24N 32°50' W 079°53'0 0.0
2018-Jun-12 13:00N 32°50' W 079°53'0 0.0
2018-Jun-12 12:30N 32°50' W 079°53'0 0.0
2018-Jun-12 12:00N 32°50' W 079°53'0 0.0
2018-Jun-12 11:30N 32°50' W 079°53'0 0.0
2018-Jun-12 11:00N 32°50' W 079°53'0 0.0
2018-Jun-12 10:30N 32°50' W 079°53'0 0.1
2018-Jun-12 10:00N 32°50' W 079°53'2 3.5
2018-Jun-12 09:27N 32°49' W 079°55'4 8.5
2018-Jun-12 09:00N 32°46' W 079°52'203 4.3
2018-Jun-10 09:49N 34°20' W 076°16'311.2
2018-Jun-10 09:31N 34°22' W 076°13'155 8.6
2018-Jun-09 15:32N 36°57' W 076°20'5 8.6
2018-Jun-09 15:01N 36°53' W 076°20'1 0.0
2018-Jun-08 15:28N 36°53' W 076°21'1 3.1
2018-Jun-08 15:00N 36°54' W 076°20'4 8.1
2018-Jun-08 14:29N 36°58' W 076°20'1012.7
2018-Jun-08 13:42N 36°59' W 076°07'514.2
2018-Jun-08 13:20N 36°57' W 076°01'514.9
2018-Jun-08 13:00N 36°55' W 075°56'5 9.1
2018-Jun-08 12:30N 36°52' W 075°51'611.2
2018-Jun-08 12:00N 36°49' W 075°45'612.7
2018-Jun-08 11:30N 36°45' W 075°40'713.8
2018-Jun-08 11:00N 36°40' W 075°33'714.5
2018-Jun-08 10:30N 36°36' W 075°27'714.7
2018-Jun-08 10:00N 36°31' W 075°19'714.8
2018-Jun-08 09:30N 36°26' W 075°13'714.7
2018-Jun-08 09:00N 36°21' W 075°06'914.6
2018-Jun-08 08:24N 36°12' W 075°05'614.6
2018-Jun-08 08:00N 36°06' W 075°04'714.6
2018-Jun-08 07:31N 35°59' W 075°04'714.4
2018-Jun-08 07:00N 35°52' W 075°03'714.4
2018-Jun-08 06:30N 35°45' W 075°02'714.3
2018-Jun-08 06:00N 35°37' W 075°02'714.3
2018-Jun-08 05:30N 35°30' W 075°01'714.2
2018-Jun-08 05:00N 35°23' W 075°01'714.1
2018-Jun-08 04:30N 35°16' W 075°00'713.0
2018-Jun-08 03:59N 35°10' W 074°60'30912.8
2018-Jun-07 03:45N 32°04' W 079°57'311.5
2018-Jun-07 03:30N 32°03' W 080°00'1111.4
2018-Jun-07 02:35N 31°60' W 080°12'211.5
2018-Jun-07 02:25N 31°59' W 080°14'511.5
2018-Jun-07 02:00N 31°58' W 080°20'  

Dump ship's entire track history